When you browse on this site, cookies collect data to enhance your experience and personalize the content and advertising you see.
Visit our Privacy Policy to learn more. By continuing to use the site, you agree to this use of cookies and data.
  • In Denmark
  • List of Countries
  • For 7 days
  • Water Temperature
  • Satellite Maps
  • Weather Map
  • Weather Widgets
  • user-avatar
    Login

    Hourly Weather Bangor

    Today, 22 April, Monday

    Time Temperature Precipitation Wind Pressure Humidity
    00:00 +11°C° 0 mm 1 mps 741 mmHg 86%
    01:00 +10°C° 0 mm 1 mps 741 mmHg 86%
    02:00 +9°C° 0 mm 1 mps 740 mmHg 87%
    03:00 +9°C° 0 mm 1 mps 739 mmHg 88%
    04:00 +8°C° 0 mm 2 mps 739 mmHg 86%
    05:00 +8°C° 0 mm 2 mps 738 mmHg 85%
    06:00 +7°C° 0 mm 2 mps 738 mmHg 84%
    07:00 +9°C° 0 mm 2 mps 738 mmHg 79%
    08:00 +11°C° 0 mm 3 mps 737 mmHg 75%
    09:00 +13°C° 0 mm 3 mps 737 mmHg 70%
    10:00 +15°C° 0.1 mm 4 mps 737 mmHg 69%
    11:00 +18°C° 0.1 mm 4 mps 736 mmHg 68%
    12:00 +19°C° 0.1 mm 5 mps 736 mmHg 67%
    13:00 +19°C° 0.6 mm 5 mps 736 mmHg 68%
    14:00 +19°C° 0.6 mm 5 mps 735 mmHg 69%
    15:00 +19°C° 0.6 mm 5 mps 735 mmHg 71%
    16:00 +18°C° 0.3 mm 4 mps 734 mmHg 75%
    17:00 +17°C° 0.3 mm 4 mps 734 mmHg 80%
    18:00 +16°C° 0.3 mm 3 mps 734 mmHg 84%
    19:00 +15°C° 0 mm 2 mps 734 mmHg 86%
    20:00 +13°C° 0 mm 2 mps 734 mmHg 88%
    21:00 +12°C° 0 mm 1 mps 734 mmHg 90%
    22:00 +12°C° 0 mm 1 mps 734 mmHg 90%
    23:00 +12°C° 0 mm 1 mps 733 mmHg 91%

    Tomorrow, 23 April, Tuesday

    Time Temperature Precipitation Wind Pressure Humidity
    00:00 +11°C° 0 mm 1 mps 733 mmHg 91%
    01:00 +11°C° 0 mm 1 mps 733 mmHg 91%
    02:00 +12°C° 0 mm 2 mps 732 mmHg 91%
    03:00 +11°C° 0 mm 3 mps 732 mmHg 91%
    04:00 +10°C° 0 mm 3 mps 731 mmHg 92%
    05:00 +10°C° 0 mm 3 mps 731 mmHg 93%
    06:00 +10°C° 0 mm 3 mps 731 mmHg 94%
    07:00 +12°C° 0 mm 3 mps 731 mmHg 89%
    08:00 +14°C° 0 mm 4 mps 731 mmHg 85%
    09:00 +15°C° 0 mm 4 mps 731 mmHg 80%
    10:00 +17°C° 0.1 mm 4 mps 731 mmHg 77%
    11:00 +19°C° 0.1 mm 5 mps 731 mmHg 73%
    12:00 +20°C° 0.1 mm 5 mps 731 mmHg 70%
    13:00 +20°C° 0.1 mm 5 mps 730 mmHg 69%
    14:00 +21°C° 0.1 mm 5 mps 730 mmHg 68%
    15:00 +21°C° 0.1 mm 5 mps 730 mmHg 67%
    16:00 +20°C° 0.3 mm 4 mps 730 mmHg 72%
    17:00 +19°C° 0.3 mm 4 mps 729 mmHg 77%
    18:00 +18°C° 0.3 mm 3 mps 729 mmHg 83%
    19:00 +16°C° 0.1 mm 3 mps 729 mmHg 86%
    20:00 +14°C° 0.1 mm 3 mps 729 mmHg 89%
    21:00 +13°C° 0.1 mm 2 mps 729 mmHg 93%
    22:00 +12°C° 0 mm 2 mps 729 mmHg 94%
    23:00 +12°C° 0 mm 2 mps 729 mmHg 95%

    Day after tomorrow, 24 April, Wednesday

    Time Temperature Precipitation Wind Pressure Humidity
    00:00 +10°C° 0 mm 2 mps 729 mmHg 96%
    01:00 +9°C° 0 mm 2 mps 728 mmHg 96%
    02:00 +9°C° 0 mm 2 mps 728 mmHg 96%
    03:00 +9°C° 0 mm 2 mps 728 mmHg 96%
    04:00 +9°C° 2 mm 2 mps 727 mmHg 96%
    05:00 +9°C° 2 mm 2 mps 727 mmHg 97%
    06:00 +9°C° 2 mm 3 mps 727 mmHg 97%
    07:00 +9°C° 1.8 mm 3 mps 727 mmHg 95%
    08:00 +8°C° 1.8 mm 4 mps 727 mmHg 94%
    09:00 +8°C° 1.8 mm 4 mps 728 mmHg 92%
    10:00 +8°C° 0.5 mm 4 mps 728 mmHg 91%
    11:00 +10°C° 0.5 mm 4 mps 728 mmHg 89%
    12:00 +10°C° 0.5 mm 4 mps 728 mmHg 88%
    13:00 +10°C° 0.7 mm 4 mps 728 mmHg 87%
    14:00 +9°C° 0.7 mm 5 mps 728 mmHg 87%
    15:00 +9°C° 0.7 mm 6 mps 729 mmHg 87%
    16:00 +9°C° 0.1 mm 5 mps 728 mmHg 85%
    17:00 +9°C° 0.1 mm 5 mps 728 mmHg 84%
    18:00 +9°C° 0.1 mm 5 mps 728 mmHg 83%
    19:00 +8°C° 0 mm 6 mps 728 mmHg 85%
    20:00 +7°C° 0 mm 6 mps 728 mmHg 87%
    21:00 +7°C° 0 mm 6 mps 727 mmHg 90%
    22:00 +7°C° 0.6 mm 6 mps 727 mmHg 91%
    23:00 +6°C° 0.6 mm 7 mps 727 mmHg 93%

    25 April, Thursday

    Time Temperature Precipitation Wind Pressure Humidity
    00:00 +8°C° 0.6 mm 7 mps 726 mmHg 94%
    01:00 +8°C° 1.8 mm 7 mps 726 mmHg 94%
    02:00 +8°C° 1.8 mm 7 mps 726 mmHg 93%
    03:00 +8°C° 1.8 mm 7 mps 726 mmHg 93%
    04:00 +6°C° 0 mm 7 mps 726 mmHg 92%
    05:00 +7°C° 0 mm 6 mps 726 mmHg 91%
    06:00 +5°C° 0 mm 6 mps 726 mmHg 90%
    07:00 +6°C° 0.1 mm 7 mps 727 mmHg 86%
    08:00 +7°C° 0.1 mm 9 mps 727 mmHg 82%
    09:00 +8°C° 0.1 mm 10 mps 727 mmHg 78%
    10:00 +8°C° 0.2 mm 11 mps 727 mmHg 77%
    11:00 +8°C° 0.2 mm 11 mps 727 mmHg 75%
    12:00 +8°C° 0.2 mm 12 mps 727 mmHg 74%
    13:00 +8°C° 0.7 mm 12 mps 727 mmHg 78%
    14:00 +7°C° 0.7 mm 12 mps 727 mmHg 83%
    15:00 +5°C° 0.7 mm 12 mps 727 mmHg 88%
    16:00 +7°C° 0.2 mm 10 mps 728 mmHg 87%
    17:00 +7°C° 0.2 mm 9 mps 729 mmHg 87%
    18:00 +9°C° 0.2 mm 7 mps 730 mmHg 86%
    19:00 +8°C° 0.1 mm 7 mps 731 mmHg 88%
    20:00 +8°C° 0.1 mm 7 mps 732 mmHg 90%
    21:00 +6°C° 0.1 mm 7 mps 732 mmHg 92%
    22:00 +7°C° 0 mm 6 mps 733 mmHg 91%
    23:00 +7°C° 0 mm 6 mps 733 mmHg 91%

    26 April, Friday

    Time Temperature Precipitation Wind Pressure Humidity
    00:00 +7°C° 0 mm 6 mps 733 mmHg 91%
    01:00 +5°C° 0 mm 6 mps 733 mmHg 90%
    02:00 +5°C° 0 mm 7 mps 734 mmHg 89%
    03:00 +5°C° 0 mm 7 mps 734 mmHg 88%
    04:00 +5°C° 0.1 mm 7 mps 734 mmHg 89%
    05:00 +6°C° 0.1 mm 7 mps 735 mmHg 90%
    06:00 +6°C° 0.1 mm 7 mps 736 mmHg 91%
    07:00 +6°C° 0.2 mm 7 mps 737 mmHg 88%
    08:00 +7°C° 0.2 mm 8 mps 738 mmHg 85%
    09:00 +7°C° 0.2 mm 8 mps 739 mmHg 82%
    10:00 +8°C° 0.1 mm 9 mps 739 mmHg 76%
    11:00 +8°C° 0.1 mm 9 mps 740 mmHg 69%
    12:00 +10°C° 0.1 mm 9 mps 741 mmHg 63%
    13:00 +10°C° 0 mm 9 mps 741 mmHg 65%
    14:00 +8°C° 0 mm 9 mps 740 mmHg 66%
    15:00 +8°C° 0 mm 9 mps 740 mmHg 68%
    16:00 +8°C° 0.5 mm 10 mps 739 mmHg 75%
    17:00 +7°C° 0.5 mm 11 mps 738 mmHg 82%
    18:00 +7°C° 0.5 mm 13 mps 737 mmHg 88%
    19:00 +5°C° 0.6 mm 13 mps 737 mmHg 85%
    20:00 +5°C° 0.6 mm 13 mps 736 mmHg 82%
    21:00 +4°C° 0.6 mm 13 mps 736 mmHg 79%
    22:00 +4°C° 0 mm 12 mps 737 mmHg 75%
    23:00 +4°C° 0 mm 12 mps 738 mmHg 71%

    27 April, Saturday

    Time Temperature Precipitation Wind Pressure Humidity
    00:00 +3°C° 0 mm 11 mps 739 mmHg 68%
    01:00 +3°C° 0 mm 9 mps 740 mmHg 68%
    02:00 +2°C° 0 mm 8 mps 741 mmHg 69%
    03:00 +3°C° 0 mm 7 mps 742 mmHg 70%
    04:00 +3°C° 0.1 mm 7 mps 742 mmHg 71%
    05:00 +3°C° 0.1 mm 7 mps 742 mmHg 71%
    06:00 +3°C° 0.1 mm 6 mps 743 mmHg 72%
    07:00 +4°C° 0.1 mm 7 mps 743 mmHg 71%
    08:00 +5°C° 0.1 mm 8 mps 744 mmHg 70%
    09:00 +6°C° 0.1 mm 9 mps 744 mmHg 69%
    10:00 +6°C° 0.3 mm 9 mps 744 mmHg 69%
    11:00 +7°C° 0.3 mm 9 mps 744 mmHg 69%
    12:00 +7°C° 0.3 mm 10 mps 744 mmHg 70%
    13:00 +7°C° 0.2 mm 9 mps 744 mmHg 70%
    14:00 +8°C° 0.2 mm 9 mps 744 mmHg 71%
    15:00 +8°C° 0.2 mm 9 mps 744 mmHg 72%
    16:00 +9°C° 0.2 mm 8 mps 744 mmHg 75%
    17:00 +7°C° 0.2 mm 8 mps 744 mmHg 79%
    18:00 +8°C° 0.2 mm 7 mps 743 mmHg 83%
    19:00 +7°C° 0 mm 6 mps 744 mmHg 85%
    20:00 +5°C° 0 mm 6 mps 744 mmHg 88%
    21:00 +6°C° 0 mm 5 mps 744 mmHg 90%
    22:00 +5°C° 0 mm 5 mps 744 mmHg 90%
    23:00 +5°C° 0 mm 5 mps 744 mmHg 91%
    Show more